Location: Berg
(47.2344°N, 9.5296°E)
Time: 22:58:13
(UTC+00:00)

ISS - Pass Details

Date: 24 January 2021
Orbit: 417 x 422 km, 51.6° (Epoch: 04 March)

Event Time Altitude Azimuth Distance (km) Brightness Sun altitude
Rises 19:18:56 0° 284° (WNW) 2,376 1.2 -31.5°
Reaches altitude 10° 19:21:08 10° 292° (WNW) 1,512 -0.1 -31.9°
Enters shadow 19:21:15 11° 293° (WNW) 1,468 -0.2 -31.9°
